Login

steinbok
1 activity; - Last training unit 31/07/2014
31/07/2014 Show to everybody punta telegrafo est sent 657-660 64.09 2335 08:12:44 7.8 Km\h Nomad
28/07/2014 Show to everybody sciogligamba 28.1 496 01:56:30 14.47 Km\h Nomad
27/07/2014 Show to everybody chur,says 30.58 1182 03:11:15 9.6 Km\h Nomad
23/07/2014 Show to everybody spass-1 15.59 663 01:29:14 10.48 Km\h Nomad
22/07/2014 Show to everybody chur, tamins, ems sciolto 27.45 385 01:59:53 13.74 Km\h Nomad
19/07/2014 Show to everybody fiesch, aletsch, vs, switzerland 40.69 1693 05:35:06 7.28 Km\h Nomad
17/07/2014 Show to everybody chur, rothenbrunner, ems 39.87 599 02:49:22 14.12 Km\h Nomad
16/07/2014 Show to everybody thusis,terziel, prodavos sut 22.3 1057 02:22:12 9.41 Km\h Nomad
15/07/2014 Show to everybody furstenwald-maladers 21.22 745 02:05:10 10.17 Km\h Nomad
13/07/2014 Show to everybody scarico leggero 18.21 220 01:38:02 11.14 Km\h Nomad
10/07/2014 Show to everybody fondo medio 42 419 02:37:21 16.02 Km\h Nomad
09/07/2014 Show to everybody rongellen 19.44 774 01:58:53 9.81 Km\h Nomad
08/06/2014 Show to everybody catramerio 24.79 962 02:45:08 9.01 Km\h Bronson C
07/06/2014 Show to everybody valcava-opreno 25.72 1245 03:32:45 7.25 Km\h Bronson C
29/05/2014 Show to everybody bronzone sbagliato 10.41 417 01:23:12 7.51 Km\h Bronson C
29/05/2014 Show to everybody notturna ad ambriola 18.61 845 02:13:42 8.35 Km\h Bronson C
27/05/2014 Show to everybody mittenberg freeride 13.73 584 01:22:05 10.04 Km\h Bronson C
24/05/2014 Show to everybody kunkel pass 61.33 1997 04:45:30 12.89 Km\h Bronson C
22/05/2014 Show to everybody giro serale 8.23 347 00:57:16 8.63 Km\h Bronson C
18/05/2014 Show to everybody rifugio venini- monte tremezzo-tremezzo 44.81 2098 04:23:42 10.2 Km\h Bronson C
17/05/2014 Show to everybody tour misma-2 32.73 1201 03:58:41 8.23 Km\h Bronson C
04/05/2014 Show to everybody churfisten panoramabike nr 479 45.1 1381 04:00:18 11.26 Km\h Bronson C
01/05/2014 Show to everybody calanda-1 31.31 1410 03:09:53 9.89 Km\h Bronson C
26/04/2014 Show to everybody monte ubione-1 18 601 02:03:39 8.73 Km\h Bronson C
24/04/2014 Show to everybody weinstrasse-1 54.44 564 02:55:38 18.6 Km\h Bronson C
23/04/2014 Show to everybody crap carschenna-rongellen 16.11 567 01:27:39 11.03 Km\h Bronson C
20/04/2014 Show to everybody maresana-colle di ranica-monte zuccone-nese 25.2 529 02:04:47 12.12 Km\h Bronson C
18/04/2014 Show to everybody monte canto-2 batteria scarica 13.46 726 01:50:22 7.32 Km\h Bronson C
13/04/2014 Show to everybody pogno-1 2.45 0 00:09:45 15.08 Km\h Bronson C
11/04/2014 Show to everybody thusis-crap carschenna-thusis 13.75 859 01:22:33 10 Km\h Bronson C
10/04/2014 Show to everybody mittenberg-altstadt-passugg-freeride 22.36 767 02:14:04 10.01 Km\h Bronson C
05/04/2014 Show to everybody anfo-monte censo 24.79 1140 03:09:30 7.85 Km\h Bronson C
03/04/2014 Show to everybody juggs 17.01 663 01:32:57 10.98 Km\h Bronson C
01/04/2014 Show to everybody mittenberg-1 14.53 526 01:30:15 9.66 Km\h Bronson C
30/03/2014 Show to everybody ripetute e allenamento tecnico ganda-1 8.76 314 00:57:57 9.07 Km\h Bronson C
27/03/2014 Show to everybody allenamento di fondo corto 39.68 98 01:59:25 19.94 Km\h Bronson C
22/03/2014 Show to everybody baita campo-sentiero 128-p.zza brembana 25.73 1079 03:43:38 6.9 Km\h Bronson C
16/03/2014 Show to everybody 2014-03-16 giro dei forti di genova 36.87 1151 04:22:33 8.43 Km\h Bronson C
14/03/2014 Show to everybody colle dei pasta (settaggi bronsonc) 11.58 215 00:54:17 12.8 Km\h Bronson C
03/01/2014 Show to everybody punta ala (test bronsonc) 19.54 491 02:03:30 9.49 Km\h Bronson C
13/11/2013 Show to everybody Allenamento n. 29 13.08 535 01:22:17 9.53 Km\h
09/11/2013 Show to everybody Allenamento n. 28 32.44 1092 03:18:33 9.8 Km\h
06/11/2013 Show to everybody Allenamento n. 27 36.62 133 01:49:18 20.1 Km\h
01/11/2013 Show to everybody Allenamento n. 26 37.12 2074 04:46:04 7.78 Km\h
30/10/2013 Show to everybody Allenamento 30-10-2013 alle 08:26:58.000 79.05 1589 06:28:49 12.2 Km\h
26/10/2013 Show to everybody Allenamento 26-10-2013 alle 12:21:06.000 21.65 898 02:11:04 9.91 Km\h
22/10/2013 Show to everybody Allenamento 22-10-2013 alle 16:15:06.000 14.98 519 01:32:57 9.67 Km\h
20/10/2013 Show to everybody Allenamento 20-10-2013 alle 11:08:49.000 4.27 156 00:35:58 7.12 Km\h
20/10/2013 Show to everybody Allenamento 20-10-2013 alle 11:08:49.000 4.27 156 00:35:58 7.12 Km\h
20/10/2013 Show to everybody Allenamento 20-10-2013 alle 12:08:26.000 5.24 250 00:39:32 7.96 Km\h
19/10/2013 Show to everybody Allenamento 19-10-2013 alle 08:36:36.000 16.17 1015 01:56:22 8.34 Km\h
19/10/2013 Show to everybody Allenamento 19-10-2013 alle 11:47:05.000 12.81 107 00:51:35 14.9 Km\h
13/10/2013 Show to everybody Allenamento 13-10-2013 alle 06:42:24.000 32.39 646 02:39:37 12.17 Km\h
06/10/2013 Show to everybody Allenamento 06-10-2013 alle 06:33:36.000 25.03 661 02:09:48 11.57 Km\h
02/10/2013 Show to everybody Allenamento 02-10-2013 alle 16:16:30.000 13.54 517 01:24:28 9.62 Km\h
21/09/2013 Show to everybody Allenamento 21-09-2013 alle 05:53:11.000 61.13 1904 07:11:44 8.5 Km\h
14/09/2013 Show to everybody Allenamento 14-09-2013 alle 15:21:16.000 27.06 464 01:50:43 14.67 Km\h
07/09/2013 Show to everybody Allenamento 07-09-2013 alle 08:07:23.000 43.56 1715 03:53:00 11.22 Km\h
07/09/2013 Show to everybody Allenamento 07-09-2013 alle 14:47:43.000 34.83 634 05:29:41 6.34 Km\h
06/09/2013 Show to everybody Allenamento 06-09-2013 alle 16:12:55.000 12.4 465 01:23:46 8.88 Km\h
31/08/2013 Show to everybody Allenamento 31-08-2013 alle 15:21:48.000 24.87 644 02:18:19 10.79 Km\h
24/08/2013 Show to everybody Allenamento 24-08-2013 alle 10:57:06.000 39.2 475 02:10:53 17.97 Km\h
20/08/2013 Show to everybody Allenamento 20-08-2013 alle 16:26:51.000 17.08 561 01:28:27 11.58 Km\h
13/08/2013 Show to everybody Allenamento 13-08-2013 alle 16:30:40.000 51.31 929 03:29:45 14.68 Km\h
10/08/2013 Show to everybody Allenamento 10-08-2013 alle 15:27:06.000 23.15 651 01:45:39 13.15 Km\h
03/08/2013 Show to everybody Allenamento 03-08-2013 alle 08:15:48.000 21.25 360 01:30:47 14.04 Km\h
01/08/2013 Show to everybody Allenamento 01-08-2013 alle 16:26:47.000 36.71 371 02:02:41 17.95 Km\h
28/07/2013 Show to everybody Allenamento 28-07-2013 alle 06:44:16.000 43.7 1615 04:57:48 8.81 Km\h
27/07/2013 Show to everybody Allenamento 27-07-2013 alle 16:29:36.000 15.09 518 01:31:30 9.9 Km\h
26/07/2013 Show to everybody Allenamento 26-07-2013 alle 16:32:54.000 23.99 234 01:22:23 17.47 Km\h
24/07/2013 Show to everybody Allenamento 24-07-2013 alle 17:02:31.000 64.17 925 03:01:36 21.2 Km\h
18/07/2013 Show to everybody Allenamento 18-07-2013 alle 16:36:13.000 23.36 632 01:31:56 15.24 Km\h
16/07/2013 Show to everybody Allenamento 16-07-2013 alle 16:53:06.000 48.65 342 02:06:21 23.1 Km\h
14/07/2013 Show to everybody Allenamento 14-07-2013 alle 15:21:40.000 18.49 272 01:23:55 13.22 Km\h
13/07/2013 Show to everybody Allenamento 13-07-2013 alle 13:40:36.000 11.75 333 01:03:49 11.05 Km\h
12/07/2013 Show to everybody Allenamento 12-07-2013 alle 17:27:46.000 37.09 156 01:44:47 21.24 Km\h
10/07/2013 Show to everybody Allenamento 10-07-2013 alle 17:03:05.000 35.12 119 01:32:41 22.74 Km\h
Training units 0
Kilometers 0 Km
Vertical gain 0 mt
Hours of riding 00:00:00
Average speed 0 Km/h
average HR 126
Points 94
Live Tracking »

Bronson C 66:54:41 681.02 Km
Nomad 35:55:42 369.53 Km

 
If you stop following this users you will not be able to compare your trainings with his

Now you follow this users and you can compare your trainings


MTB-Mag.com | 2012-2020 Training Camp v.1.6 rev 05